METEOR 2-7 DEB

Satellite information

Favourite Embed

Satellite Type and Status

DEBRISIN ORBIT

Key statistics

Satellite METEOR 2-7 DEB at a glance.

Uptime

16063

Days in orbit

Revolutions

≈ 14.4

Per day

Orbit

LEO

Low Earth Orbit

Inclination

81.3

Latest

Satellite identification and parameters

Extended collection of information and parameters for METEOR 2-7 DEB.

Object identification

Identified? True

Debris? True

Object name: METEOR 2-7 DEB

International designator: 1981-043W

Object number (NORAD): 38288

Object ID (CCSDS): 38288

Country: COMMONWEALTH OF INDEPENDENT STATES (CIS)

Current information (Y/N): Y

RCS size: SMALL

Orbital parameters

Period: 99.944 minutes

Inclination: 81.2538 deg

SMA: 7133.958 km

Apoapsis: 780.102 km

Periapsis: 731.543 km

RAAN: 50.4859 deg

Eccentricy: 0.0034034

Argument of periapsis: 333.8129 deg

Mean anomaly: 26.1336 deg

Mean motion: 14.4081088 rev/day

Mean motion (dot): 0.00004612 rev/day2

B* drag term: 0.0014269 1/REarth

Two-line elements (TLE)

Creation date: May 5, 2025, 2:26 p.m.

Reference frame: TEME

Reference center: EARTH

Epoch: May 5, 2025, 11:45 a.m. UTC

TLE line 0: 0 METEOR 2-7 DEB

TLE line 1: 1 38288U 81043W 25125.49005108 .00004612 00000-0 14269-2 0 9994

TLE line 2: 2 38288 81.2538 50.4859 0034034 333.8129 26.1336 14.40810880742167

Live tracking on map

Real-time ground track for satellite METEOR 2-7 DEB.

In-orbit conjunctions

A list of the most updated potential collisions computed for object METEOR 2-7 DEB.

Target Orbit TCA Probability of collision Miss distance Type
NOAA 16 DEB SSO 2024-11-11 23:54:13 0.0007847789 111.0 (m) DEBRIS
COSMOS 1302 LEO 2024-09-01 22:51:03 0.0001617882 440.0 (m) PAYLOAD
DELTA 1 DEB SSO 2024-07-01 17:25:28 0.0001362452 112.0 (m) DEBRIS
CZ-2D DEB SSO 2024-06-23 04:39:20 0.000200874 77.0 (m) DEBRIS

Associated space launch

Second generation soviet meteorological satellite

METEOR 2-7 DEB was lifted into orbit during the mission ‘Vostok 8A92M | Meteor-2 7’, on board a Vostok 8A92M space rocket.

The launch took place on May 14, 1981, 9:45 p.m. from 43/3 (43L).

For more information about the launch, click the button.

Launch to space Vostok 8A92M | Meteor-2 7
Vostok 8A92M | Meteor-2 7

Agency: N/A

Status: Launch Successful

Launch date: May 14, 1981, 9:45 p.m. UTC

Rocket: Vostok 8A92M

Launch pad: 43/3 (43L)

Location: Plesetsk Cosmodrome, Russian Federation

...

Latest news about this satellite

There are no fresh news available about this satellite. Check back as we update our databases every day.


Newsletter sign-up

Weekly statistics, charts and insights to help you stay on top of the space industry.